W8MRL Weather Reports


time (UTC)temp
F
wind
direction
speed
knots
gust
knots
rain 1hr
in
rain 24hr
in
rain mn
in
humidity
%
barometer
mb
20260509043049 54 293 0.0 0.9 0.01 0.03 0.00 94 1013.7
20260509041546 54 293 0.0 0.9 0.02 0.03 0.00 94 1013.9
20260509040100 54 293 0.0 0.0 0.02 0.03 0.00 93 1013.9
20260509034549 54 293 0.0 0.9 0.01 0.02 0.02 93 1014.0
20260509033042 54 293 0.0 0.0 0.01 0.02 0.02 92 1014.1
20260509031541 54 293 0.0 0.0 0.00 0.01 0.01 91 1014.2
20260509030046 54 293 0.0 0.9 0.01 0.01 0.01 91 1014.3
20260509024542 54 293 0.0 1.7 0.01 0.01 0.01 91 1014.3
20260509023044 55 328 0.0 1.7 0.01 0.01 0.01 90 1014.3
20260509021544 55 330 0.0 0.9 0.00 0.00 0.00 89 1014.7
20260509020041 55 330 0.0 0.9 0.00 0.00 0.00 89 1014.3
20260509014537 55 330 0.0 0.9 0.00 0.00 0.00 88 1013.7
20260509013041 56 330 0.0 0.9 0.00 0.00 0.00 85 1013.7
20260509011549 57 330 0.0 0.9 0.00 0.00 0.00 83 1013.8
20260509010039 57 330 0.0 0.9 0.00 0.00 0.00 81 1013.4
20260509004542 57 321 1.7 4.3 0.00 0.00 0.00 80 1013.5
20260509003036 57 319 0.9 2.6 0.00 0.00 0.00 82 1013.4
20260509001535 58 311 0.0 0.0 0.00 0.00 0.00 82 1013.2
20260509000034 59 311 0.0 0.9 0.00 0.00 0.00 82 1013.2
20260508234534 60 311 0.0 0.0 0.00 0.00 0.00 78 1013.0
20260508233033 59 311 0.0 0.9 0.00 0.00 0.00 78 1012.9
20260508231532 61 311 0.0 0.9 0.00 0.00 0.00 71 1013.1
20260508230031 62 311 0.0 0.0 0.00 0.00 0.00 68 1013.0
20260508224530 62 179 0.0 0.9 0.00 0.00 0.00 69 1013.0
20260508223040 62 179 0.0 0.0 0.00 0.00 0.00 73 1012.8
20260508221530 63 179 0.0 0.9 0.00 0.00 0.00 71 1012.9
20260508220032 64 179 0.0 0.0 0.00 0.00 0.00 64 1012.9
20260508214536 65 179 0.0 0.0 0.00 0.00 0.00 60 1013.0
20260508213128 65 179 0.0 3.5 0.00 0.00 0.00 57 1012.9
20260508211526 66 229 0.9 4.3 0.00 0.00 0.00 57 1013.0
20260508210026 66 212 0.0 3.5 0.00 0.00 0.00 56 1013.1
20260508204530 66 212 0.9 4.3 0.00 0.00 0.00 53 1013.4
20260508203021 67 244 2.6 7.0 0.00 0.00 0.00 52 1013.6
20260508201521 67 223 2.6 7.0 0.00 0.00 0.00 51 1013.9
20260508200019 67 203 3.5 7.0 0.00 0.00 0.00 50 1014.0
20260508194517 67 201 4.3 8.7 0.00 0.00 0.00 49 1014.1
20260508193017 68 217 4.3 9.6 0.00 0.00 0.00 50 1014.2
20260508191515 69 198 4.3 10.4 0.00 0.00 0.00 48 1014.2
20260508190019 70 178 5.2 8.7 0.00 0.00 0.00 47 1014.5
20260508184510 69 162 1.7 8.7 0.00 0.00 0.00 51 1014.8
20260508183007 69 176 2.6 7.8 0.00 0.00 0.00 52 1015.2
20260508181503 69 285 2.6 7.8 0.00 0.00 0.00 55 1015.3
20260508180003 66 247 1.7 7.8 0.00 0.00 0.00 54 1015.7
20260508174604 66 283 1.7 7.0 0.00 0.00 0.00 55 1016.0
20260508173058 66 204 2.6 8.7 0.00 0.00 0.00 54 1016.1
20260508171556 66 233 1.7 9.6 0.00 0.00 0.00 55 1016.3
20260508170054 67 207 2.6 9.6 0.00 0.00 0.00 54 1016.5
20260508164552 68 200 2.6 7.8 0.00 0.00 0.00 53 1016.7
20260508163051 67 258 3.5 9.6 0.00 0.00 0.00 52 1017.0
20260508161549 67 191 2.6 11.3 0.00 0.00 0.00 52 1017.1
20260508160105 67 172 4.3 10.4 0.00 0.00 0.00 53 1017.2
20260508154545 67 246 5.2 10.4 0.00 0.00 0.00 54 1017.4
20260508153046 65 203 4.3 13.0 0.00 0.00 0.00 55 1017.4
20260508151546 65 220 4.3 14.8 0.00 0.00 0.00 55 1017.6
20260508150038 63 222 4.3 13.9 0.00 0.00 0.00 56 1017.6
20260508144534 63 134 4.3 9.6 0.00 0.00 0.00 58 1017.6
20260508143041 62 200 1.7 7.0 0.00 0.00 0.00 62 1017.9
20260508141536 60 232 2.6 6.1 0.00 0.00 0.00 61 1018.3
20260508140024 59 210 2.6 5.2 0.00 0.00 0.00 61 1018.5
20260508134529 57 164 0.9 7.8 0.00 0.00 0.00 63 1018.5
20260508133018 56 196 2.6 7.0 0.00 0.00 0.00 64 1018.6
20260508131512 54 195 1.7 4.3 0.00 0.00 0.00 68 1018.5
20260508130008 51 207 0.0 1.7 0.00 0.00 0.00 79 1018.5
20260508124509 49 214 0.0 1.7 0.00 0.00 0.00 81 1018.5
20260508123000 47 213 0.0 0.0 0.00 0.00 0.00 84 1018.3
20260508121607 46 213 0.0 1.7 0.00 0.00 0.00 86 1018.5
20260508120056 44 246 0.0 0.0 0.00 0.00 0.00 88 1018.5
20260508114556 44 246 0.0 0.0 0.00 0.00 0.00 86 1018.2
20260508113055 45 247 0.0 0.0 0.00 0.00 0.00 86 1018.1
20260508111554 45 246 0.0 0.0 0.00 0.00 0.00 83 1018.0
20260508110057 45 247 0.0 0.0 0.00 0.00 0.00 85 1017.8
20260508104552 44 246 0.0 0.9 0.00 0.00 0.00 86 1017.7
20260508103054 44 249 0.0 0.9 0.00 0.00 0.00 87 1017.8
20260508101550 43 249 0.0 0.9 0.00 0.00 0.00 88 1017.9
20260508100050 43 249 0.0 0.0 0.00 0.00 0.00 88 1017.9
20260508094603 43 249 0.0 0.0 0.00 0.00 0.00 87 1018.0
20260508093049 43 249 0.0 0.0 0.00 0.00 0.00 87 1018.1
20260508091554 44 249 0.0 0.0 0.00 0.00 0.00 86 1017.9
20260508090047 43 249 0.0 0.9 0.00 0.00 0.00 86 1018.1
20260508084547 43 249 0.0 0.9 0.00 0.00 0.00 86 1017.9
20260508083124 43 249 0.0 0.0 0.00 0.00 0.00 85 1018.0
20260508081553 43 249 0.0 0.9 0.00 0.00 0.00 85 1018.3
20260508080053 41 183 0.0 0.0 0.00 0.00 0.00 86 1018.0
20260508074543 41 183 0.0 0.0 0.00 0.00 0.00 87 1017.9
20260508073043 42 183 0.0 0.0 0.00 0.00 0.00 87 1017.9
20260508071544 42 183 0.0 0.0 0.00 0.00 0.00 86 1017.9
20260508070038 42 183 0.0 0.0 0.00 0.00 0.00 85 1018.2
20260508064554 42 183 0.0 0.0 0.00 0.00 0.00 84 1018.4
20260508063038 43 184 0.0 0.0 0.00 0.00 0.00 85 1018.5
20260508061537 43 184 0.0 0.0 0.00 0.00 0.00 83 1018.7
20260508060034 43 184 0.0 0.9 0.00 0.00 0.00 82 1018.8
20260508054532 43 170 0.0 0.0 0.00 0.00 0.00 83 1018.7
20260508053030 43 171 0.0 0.0 0.00 0.00 0.00 83 1018.7
20260508051529 44 171 0.0 0.0 0.00 0.00 0.00 82 1018.8
20260508050034 45 170 0.0 1.7 0.00 0.00 0.00 81 1018.7
20260508044527 45 191 0.0 1.7 0.00 0.00 0.00 78 1018.7